Greer, SC

9:37 AM EST on February 22, 2017 (GMT -0500)
Greenville-Spartanburg International

Weather History for KGSP - June, 2013

Change the Weather History Date:

Thursday, June 13, 2013

  Actual Average Record
Temperature  
Mean Temperature 80 °F 76 °F  
Max Temperature 91 °F 87 °F 99 °F (1886)
Min Temperature 68 °F 65 °F 46 °F (1903)
Degree Days  
Heating Degree Days 0 0  
Month to date heating degree days 0 0  
Since 1 June heating degree days 0 0  
Since 1 July heating degree days 2966 3044  
Cooling Degree Days 15 11  
Month to date cooling degree days 142 129  
Year to date cooling degree days 304 330  
Since 1 June cooling degree days 142 129  
Growing Degree Days 30 (Base 50)    
Moisture  
Dew Point 70 °F    
Average Humidity 72    
Maximum Humidity 97    
Minimum Humidity 47    
Precipitation  
Precipitation 0.04 in 0.12 in 1.85 in (1906)
Month to date precipitation 6.48 1.64  
Year to date precipitation 29.64 21.07  
Snow  
Snow 0.00 in 0.00 in 0.00 in ()
Month to date snowfall 0.0 0.0  
Since 1 June snowfall 0.0 0.0  
Since 1 July snowfall 2.0 4.7  
Snow Depth 0.00 in    
Sea Level Pressure  
Sea Level Pressure 29.78 in    
Wind  
Wind Speed 9 mph (WSW)    
Max Wind Speed 24 mph    
Max Gust Speed 33 mph    
Visibility 10 miles    
Events Thunderstorm    
T = Trace of Precipitation, MM = Missing Value Source: NWS Daily Summary

Daily Weather History Graph

Daily Weather History Graph

Search for Another Location

Airport or City:

Trip Planner

Search our weather history database for the weather conditions in past years. The results will help you decide how hot, cold, wet, or windy it might be!

Date:

Astronomy

Jun. 13, 2013 Rise Set
Actual Time 6:14 AM EDT 8:43 PM EDT
Civil Twilight 5:45 AM EDT 9:13 PM EDT
Nautical Twilight 5:08 AM EDT 9:49 PM EDT
Astronomical Twilight 4:28 AM EDT 10:30 PM EDT
Moon 10:41 AM EDT (6/13) 11:59 PM EDT (6/13)
Length of Visible Light 15h 28m
Length of Day
14h 28m
Waxing Crescent, 21% of the Moon is Illuminated
Jun 13
Waxing Crescent
Jun 16
First Quarter
Jun 23
Full
Jun 30
Last Quarter
Jul 8
New

Hourly Weather History & Observations

Time (EDT) Temp. Heat Index Dew Point Humidity Pressure Visibility Wind Dir Wind Speed Gust Speed Precip Events Conditions
12:53 AM 77.0 °F - 72.0 °F 84% 29.88 in 10.0 mi WSW 6.9 mph - N/A   Clear
1:53 AM 77.0 °F - 71.1 °F 82% 29.86 in 10.0 mi WSW 8.1 mph - N/A   Clear
2:53 AM 78.1 °F - 71.1 °F 79% 29.86 in 10.0 mi WSW 6.9 mph - N/A   Clear
3:53 AM 77.0 °F - 71.1 °F 82% 29.85 in 10.0 mi WSW 9.2 mph - N/A   Clear
4:53 AM 75.9 °F - 70.0 °F 82% 29.84 in 10.0 mi WSW 9.2 mph - N/A   Clear
5:53 AM 73.9 °F - 70.0 °F 87% 29.83 in 10.0 mi SW 5.8 mph - N/A   Clear
6:53 AM 73.0 °F - 70.0 °F 90% 29.83 in 10.0 mi WSW 8.1 mph - N/A   Clear
7:53 AM 77.0 °F - 71.1 °F 82% 29.83 in 10.0 mi West 8.1 mph - N/A   Clear
8:53 AM 81.0 °F 84.4 °F 70.0 °F 69% 29.82 in 10.0 mi WSW 10.4 mph - N/A   Clear
9:53 AM 84.0 °F 88.4 °F 70.0 °F 63% 29.81 in 10.0 mi SW 11.5 mph 17.3 mph N/A   Clear
10:53 AM 86.0 °F 90.7 °F 70.0 °F 59% 29.79 in 10.0 mi SW 10.4 mph - N/A   Clear
11:53 AM 88.0 °F 90.7 °F 66.9 °F 49% 29.77 in 10.0 mi WSW 15.0 mph - N/A   Clear
12:53 PM 90.0 °F 92.8 °F 66.9 °F 46% 29.75 in 10.0 mi WSW 18.4 mph 27.6 mph N/A   Clear
1:53 PM 91.0 °F 95.2 °F 68.0 °F 47% 29.73 in 10.0 mi WSW 16.1 mph 28.8 mph N/A   Clear
2:53 PM 90.0 °F 94.5 °F 69.1 °F 50% 29.72 in 10.0 mi WSW 16.1 mph 26.5 mph N/A   Clear
3:53 PM 89.1 °F 94.1 °F 70.0 °F 53% 29.71 in 10.0 mi SW 19.6 mph 26.5 mph N/A   Clear
4:53 PM 86.0 °F 90.7 °F 70.0 °F 59% 29.70 in 10.0 mi SW 16.1 mph 21.9 mph N/A   Clear
5:45 PM 82.4 °F 87.2 °F 71.6 °F 70% 29.76 in 6.0 mi West 8.1 mph - N/A Thunderstorm Haze
5:53 PM 84.0 °F 88.4 °F 70.0 °F 63% 29.72 in 6.0 mi West 6.9 mph - N/A Thunderstorm Unknown
6:40 PM 77.0 °F - 71.6 °F 83% 29.76 in 10.0 mi WNW 8.1 mph - 0.04 in   Mostly Cloudy
6:53 PM 75.0 °F - 73.0 °F 94% 29.72 in 8.0 mi West 5.8 mph - 0.04 in   Mostly Cloudy
7:53 PM 73.9 °F - 72.0 °F 93% 29.75 in 10.0 mi SSW 5.8 mph - N/A   Clear
8:53 PM 73.0 °F - 69.1 °F 87% 29.75 in 10.0 mi West 4.6 mph - N/A   Clear
9:53 PM 70.0 °F - 68.0 °F 93% 29.75 in 10.0 mi Calm Calm - N/A   Clear
10:53 PM 70.0 °F - 68.0 °F 93% 29.77 in 10.0 mi WSW 3.5 mph - N/A   Clear
11:53 PM 70.0 °F - 66.9 °F 90% 29.78 in 10.0 mi Calm Calm - N/A   Clear